Jesup, GA

9:51 AM EST on February 20, 2017 (GMT -0500)
Jesup-Wayne County

Weather History for KJES - February, 2014

Change the Weather History Date:

Monday, February 24, 2014

  Actual Average (KLHW) Record (KLHW)
Temperature  
Mean Temperature 62 °F -  
Max Temperature 73 °F 67 °F 84 °F (2012)
Min Temperature 51 °F 44 °F 23 °F (1989)
Degree Days  
Heating Degree Days 3    
Growing Degree Days 12 (Base 50)    
Moisture  
Dew Point 55 °F    
Average Humidity 81    
Maximum Humidity 100    
Minimum Humidity 44    
Precipitation  
Precipitation 0.00 in - - ()
Sea Level Pressure  
Sea Level Pressure 30.04 in    
Wind  
Wind Speed 4 mph (NNW)    
Max Wind Speed 12 mph    
Max Gust Speed 18 mph    
Visibility 9 miles    
Events      
Averages and records for this station are not official NWS values.
T = Trace of Precipitation, MM = Missing Value Source: NWS Daily Summary

Daily Weather History Graph

Daily Weather History Graph

Search for Another Location

Airport or City:

Trip Planner

Search our weather history database for the weather conditions in past years. The results will help you decide how hot, cold, wet, or windy it might be!

Date:

Astronomy

Feb. 24, 2014 Rise Set
Actual Time 7:00 AM EST 6:21 PM EST
Civil Twilight 6:35 AM EST 6:46 PM EST
Nautical Twilight 6:07 AM EST 7:14 PM EST
Astronomical Twilight 5:39 AM EST 7:42 PM EST
Moon 2:46 AM EST (2/24) 1:32 PM EST (2/24)
Length of Visible Light 12h 10m
Length of Day
11h 21m
Waning Crescent, 28% of the Moon is Illuminated
Feb 24
Waning Crescent
Mar 1
New
Mar 8
First Quarter
Mar 16
Full
Mar 23
Last Quarter

Hourly Weather History & Observations

Time (EST) Temp. Dew Point Humidity Pressure Visibility Wind Dir Wind Speed Gust Speed Precip Events Conditions
12:15 AM 57.2 °F 57.2 °F 100% 30.00 in 7.0 mi West 3.5 mph - N/A   Overcast
12:35 AM 57.2 °F 57.2 °F 100% 30.00 in 5.0 mi WNW 4.6 mph - N/A   Overcast
12:55 AM 59.0 °F 59.0 °F 100% 30.00 in 5.0 mi WNW 5.8 mph - N/A   Overcast
1:15 AM 59.0 °F 59.0 °F 100% 30.01 in 5.0 mi WNW 8.1 mph - N/A   Overcast
1:35 AM 59.0 °F 59.0 °F 100% 30.01 in 3.0 mi WNW 6.9 mph - N/A   Overcast
1:55 AM 59.0 °F 59.0 °F 100% 30.01 in 5.0 mi WNW 5.8 mph - N/A   Overcast
2:15 AM 59.0 °F 59.0 °F 100% 30.00 in 7.0 mi WNW 5.8 mph - N/A   Overcast
2:35 AM 59.0 °F 59.0 °F 100% 29.99 in 7.0 mi West 4.6 mph - N/A   Mostly Cloudy
2:55 AM 59.0 °F 59.0 °F 100% 29.98 in 10.0 mi West 5.8 mph - N/A   Scattered Clouds
3:15 AM 59.0 °F 59.0 °F 100% 29.98 in 10.0 mi West 4.6 mph - N/A   Mostly Cloudy
3:35 AM 59.0 °F 59.0 °F 100% 29.98 in 10.0 mi West 5.8 mph - N/A   Overcast
3:55 AM 59.0 °F 59.0 °F 100% 29.98 in 10.0 mi West 4.6 mph - N/A   Overcast
4:15 AM 59.0 °F 59.0 °F 100% 29.98 in 10.0 mi West 3.5 mph - N/A   Overcast
4:35 AM 59.0 °F 59.0 °F 100% 29.98 in 10.0 mi West 3.5 mph - N/A   Overcast
4:50 AM 59.0 °F 59.0 °F 100% 29.98 in 10.0 mi Calm Calm - N/A   Overcast
5:35 AM 59.0 °F 59.0 °F 100% 29.99 in 10.0 mi Calm Calm - N/A   Mostly Cloudy
5:55 AM 59.0 °F 59.0 °F 100% 30.00 in 10.0 mi Calm Calm - N/A   Scattered Clouds
6:15 AM 57.2 °F 57.2 °F 100% 30.01 in 5.0 mi Calm Calm - N/A   Mostly Cloudy
6:30 AM 59.0 °F 59.0 °F 100% 30.02 in 7.0 mi Calm Calm - N/A   Overcast
6:55 AM 59.0 °F 59.0 °F 100% 30.02 in 7.0 mi NW 5.8 mph - N/A   Overcast
7:15 AM 59.0 °F 59.0 °F 100% 30.03 in 10.0 mi NW 4.6 mph - N/A   Overcast
7:35 AM 59.0 °F 59.0 °F 100% 30.03 in 10.0 mi WNW 3.5 mph - N/A   Overcast
7:55 AM 59.0 °F 59.0 °F 100% 30.04 in 10.0 mi Calm Calm - N/A   Overcast
8:15 AM 60.8 °F 60.8 °F 100% 30.05 in 10.0 mi NW 4.6 mph - N/A   Mostly Cloudy
8:35 AM 60.8 °F 60.8 °F 100% 30.06 in 10.0 mi NNW 5.8 mph - N/A   Scattered Clouds
8:55 AM 60.8 °F 59.0 °F 94% 30.06 in 10.0 mi NNW 10.4 mph - N/A   Mostly Cloudy
9:15 AM 60.8 °F 59.0 °F 94% 30.07 in 10.0 mi North 6.9 mph - N/A   Mostly Cloudy
9:35 AM 62.6 °F 59.0 °F 88% 30.07 in 10.0 mi NNW 8.1 mph - N/A   Scattered Clouds
9:55 AM 64.4 °F 57.2 °F 77% 30.08 in 10.0 mi North 9.2 mph - N/A   Scattered Clouds
10:15 AM 64.4 °F 55.4 °F 73% 30.08 in 10.0 mi North 6.9 mph - N/A   Clear
10:35 AM 66.2 °F 55.4 °F 68% 30.08 in 10.0 mi NNW 8.1 mph - N/A   Clear
10:55 AM 68.0 °F 53.6 °F 60% 30.08 in 10.0 mi North 10.4 mph - N/A   Clear
11:15 AM 68.0 °F 53.6 °F 60% 30.08 in 10.0 mi North 10.4 mph 18.4 mph N/A   Clear
11:35 AM 68.0 °F 53.6 °F 60% 30.07 in 10.0 mi NNE 8.1 mph - N/A   Clear
11:55 AM 69.8 °F 51.8 °F 53% 30.06 in 10.0 mi NE 11.5 mph - N/A   Clear
12:15 PM 69.8 °F 51.8 °F 53% 30.06 in 10.0 mi North 8.1 mph - N/A   Clear
12:30 PM 69.8 °F 51.8 °F 53% 30.06 in 10.0 mi North 8.1 mph - N/A   Clear
12:55 PM 69.8 °F 50.0 °F 49% 30.05 in 10.0 mi NE 10.4 mph - N/A   Clear
1:15 PM 71.6 °F 50.0 °F 46% 30.04 in 10.0 mi NE 9.2 mph - N/A   Clear
1:35 PM 71.6 °F 51.8 °F 50% 30.03 in 10.0 mi NE 6.9 mph - N/A   Clear
1:50 PM 71.6 °F 50.0 °F 46% 30.02 in 10.0 mi NE 4.6 mph - N/A   Clear
2:15 PM 71.6 °F 50.0 °F 46% 30.02 in 10.0 mi NNE 4.6 mph - N/A   Clear
2:35 PM 71.6 °F 50.0 °F 46% 30.01 in 10.0 mi Calm Calm - N/A   Clear
2:55 PM 71.6 °F 50.0 °F 46% 30.00 in 10.0 mi NE 3.5 mph - N/A   Clear
3:15 PM 73.4 °F 50.0 °F 44% 30.00 in 10.0 mi WNW 6.9 mph - N/A   Clear
3:35 PM 71.6 °F 50.0 °F 46% 30.00 in 10.0 mi Calm Calm - N/A   Clear
3:55 PM 71.6 °F 50.0 °F 46% 30.01 in 10.0 mi NW 3.5 mph - N/A   Clear
4:15 PM 71.6 °F 50.0 °F 46% 30.01 in 10.0 mi Calm Calm - N/A   Clear
4:35 PM 71.6 °F 51.8 °F 50% 30.01 in 10.0 mi Calm Calm - N/A   Clear
4:55 PM 71.6 °F 50.0 °F 46% 30.01 in 10.0 mi NNW 3.5 mph - N/A   Clear
5:15 PM 71.6 °F 51.8 °F 50% 30.02 in 10.0 mi Calm Calm - N/A   Clear
5:35 PM 69.8 °F 51.8 °F 53% 30.02 in 10.0 mi Calm Calm - N/A   Clear
5:55 PM 64.4 °F 57.2 °F 77% 30.03 in 10.0 mi Calm Calm - N/A   Clear
6:15 PM 64.4 °F 55.4 °F 73% 30.05 in 10.0 mi SE 6.9 mph - N/A   Clear
6:35 PM 62.6 °F 55.4 °F 77% 30.06 in 10.0 mi SE 3.5 mph - N/A   Clear
6:55 PM 60.8 °F 55.4 °F 82% 30.06 in 10.0 mi SE 3.5 mph - N/A   Clear
7:15 PM 60.8 °F 55.4 °F 82% 30.07 in 10.0 mi Calm Calm - N/A   Clear
7:30 PM 59.0 °F 55.4 °F 88% 30.08 in 10.0 mi SSE 3.5 mph - N/A   Clear
7:55 PM 59.0 °F 55.4 °F 88% 30.09 in 10.0 mi SE 3.5 mph - N/A   Clear
8:15 PM 57.2 °F 55.4 °F 94% 30.10 in 10.0 mi Calm Calm - N/A   Scattered Clouds
8:35 PM 57.2 °F 55.4 °F 94% 30.10 in 10.0 mi Calm Calm - N/A   Scattered Clouds
8:55 PM 55.4 °F 53.6 °F 94% 30.10 in 10.0 mi Calm Calm - N/A   Scattered Clouds
9:15 PM 55.4 °F 53.6 °F 94% 30.10 in 10.0 mi Calm Calm - N/A   Scattered Clouds
9:35 PM 55.4 °F 53.6 °F 94% 30.11 in 10.0 mi Calm Calm - N/A   Scattered Clouds
9:55 PM 53.6 °F 53.6 °F 100% 30.10 in 10.0 mi Calm Calm - N/A   Scattered Clouds
10:10 PM 51.8 °F 51.8 °F 100% 30.10 in 10.0 mi Calm Calm - N/A   Clear
10:35 PM 51.8 °F 51.8 °F 100% 30.10 in 10.0 mi Calm Calm - N/A   Clear
10:55 PM 51.8 °F 51.8 °F 100% 30.09 in 10.0 mi Calm Calm - N/A   Clear
11:35 PM 51.8 °F 51.8 °F 100% 30.08 in 10.0 mi Calm Calm - N/A   Clear
11:55 PM 51.8 °F 51.8 °F 100% 30.08 in 10.0 mi Calm Calm - N/A   Clear